Temp
5 4 4 3 3 4 3 2 3 3 2 1 2 1 1 -0 1 1 2 2 2 5 5 5 6 6 6 6 6 6 5 5 6 6 6 6 6 6 6 6 5 5 4 4
5 4 4 4 4 3 3 3 4 3 2 1 0 1 0 1 1 1 1 2 3 4 4 5 5 6 6 6 6 6 5 5 5 5 5 5 6 5 5 5 4 4 4 3
5 4 4 4 3 3 4 3 2 2 2 1 1 2 1 1 -0 -1 0 1 2 3 4 5 5 5 6 6 6 6 5 5 5 5 4 4 4 4 4 4 4 3 3 3
5 5 4 4 3 3 4 2 3 3 2 3 0 5 3 0 0 1 0 1 2 3 3 4 5 5 5 6 5 6 6 5 5 5 5 4 4 3 3 4 3 3 3 3
5 5 4 4 3 4 3 3 3 3 2 2 2 1 2 -1 1 0 1 2 2 2 3 4 4 5 6 6 6 5 5 5 5 4 4 4 4 4 3 3 3 4 4 3
5 5 4 4 4 4 4 2 3 3 3 6 1 -0 2 -2 -1 -0 1 1 2 2 3 4 5 5 5 6 6 6 5 4 3 4 4 4 3 2 3 3 3 3 3 3
5 4 4 4 4 3 4 3 4 5 4 5 1 2 -0 -1 -0 -1 0 1 1 2 3 4 5 5 6 6 6 6 6 6 5 4 4 3 2 3 3 3 3 3 3 3
3 5 4 4 3 3 3 1 1 2 4 3 1 1 -1 -1 -0 -1 -0 1 2 2 3 3 4 5 6 6 6 6 5 5 4 3 2 3 3 2 3 2 2 1 1 1
2 3 4 4 3 3 3 2 1 0 -1 2 2 3 0 0 1 1 0 2 3 3 3 4 4 5 5 5 5 5 5 4 4 3 3 3 2 2 3 3 2 2 1 1
2 2 4 4 3 3 3 3 2 2 2 3 5 3 0 1 1 2 2 2 2 3 3 3 4 4 4 4 4 4 4 4 3 3 3 3 2 2 2 2 1 1 1 1
2 2 3 4 3 3 2 2 2 1 1 4 5 4 1 1 1 1 1 2 2 2 3 3 3 4 4 4 4 3 3 3 2 2 2 3 2 2 2 2 2 1 1 1
2 2 2 3 3 3 3 2 2 3 3 2 2 4 2 1 1 1 1 1 2 2 3 3 3 3 3 4 3 3 2 2 2 2 2 2 1 1 1 2 2 1 1 1
2 1 3 4 3 3 2 3 2 2 1 3 4 5 2 2 1 1 1 2 2 2 2 2 2 2 2 2 2 3 1 1 1 1 1 1 1 1 2 1 1 0 1 1
2 2 2 4 3 3 2 2 2 2 2 4 4 3 2 2 2 2 1 2 2 1 1 1 1 1 1 1 2 1 0 0 1 0 1 0 0 0 0 0 0 0 0 -0
2 2 2 3 3 2 4 4 3 3 2 3 3 3 2 2 2 2 2 1 1 2 1 1 1 1 1 2 2 1 1 1 1 1 1 1 1 0 0 0 0 0 -0 -0
2 1 2 3 3 3 4 3 3 3 4 4 4 3 3 3 2 2 2 2 1 1 2 2 1 1 1 1 1 1 1 1 1 1 0 0 0 0 -0 -0 -1 -1 -1 -1
1 1 1 3 3 3 4 4 4 4 4 4 4 4 3 3 3 2 2 2 2 1 1 1 1 1 1 1 1 1 0 0 0 0 0 -0 -0 -0 -1 -1 -1 -2 -2 -2
2 2 1 1 2 5 4 4 4 4 4 4 4 4 4 3 3 3 3 2 2 2 2 1 1 1 1 1 1 0 0 -0 -0 -0 -1 -1 -1 -1 -1 -1 -2 -2 -2 -3
2 1 0 1 2 4 4 4 4 3 4 4 4 4 4 4 3 3 3 3 2 2 2 2 2 1 1 1 1 0 0 -0 -0 -1 -1 -1 -1 -2 -2 -2 -2 -3 -3 -4
2 1 0 -1 1 3 4 4 4 3 3 4 4 4 4 4 3 3 3 3 3 2 2 2 2 1 1 1 0 0 0 -0 -1 -1 -1 -1 -2 -2 -2 -3 -3 -4 -4 -5
2 1 1 -0 0 2 4 3 3 3 4 4 4 3 3 3 3 3 3 3 2 2 2 2 2 1 1 1 0 0 -0 -1 -1 -1 -2 -2 -2 -3 -3 -4 -4 -5 -5 -5
4 3 2 -0 -1 2 4 4 3 3 3 3 3 3 3 3 3 3 2 2 2 2 2 2 2 1 1 1 0 -0 -1 -1 -1 -2 -2 -2 -3 -3 -4 -4 -5 -5 -5 -6
3 4 4 4 4 4 4 3 3 3 2 2 2 2 2 2 2 2 2 2 2 2 2 2 1 1 1 1 0 -0 -1 -1 -1 -2 -2 -3 -3 -4 -5 -5 -5 -5 -6 -6
4 3 3 3 4 4 3 3 3 2 2 2 2 2 2 2 2 2 2 2 2 2 2 1 1 1 0 0 0 -0 -1 -1 -1 -2 -2 -3 -4 -4 -5 -5 -5 -6 -6 -6
3 3 3 3 4 3 3 3 3 2 2 2 2 2 2 1 1 1 1 2 1 1 2 1 1 1 0 -0 -0 -0 -1 -1 -2 -2 -3 -3 -4 -4 -5 -5 -6 -6 -6 -7
4 4 3 4 3 3 3 3 2 2 2 2 2 2 2 1 1 1 1 1 1 1 1 1 1 1 0 -0 -1 -1 -1 -2 -2 -2 -3 -4 -4 -5 -5 -6 -6 -6 -6 -7
Height
3132 3132 3130 3126 3123 3120 3115 3112 3110 3107 3103 3098 3097 3092 3089 3084 3082 3080 3080 3082 3084 3087 3090 3092 3096 3100 3102 3106 3109 3115 3119 3123 3126 3129 3131 3134 3137 3141 3144 3145 3145 3147 3148 3149
3132 3131 3128 3125 3121 3118 3115 3112 3109 3104 3099 3097 3093 3091 3088 3083 3079 3076 3074 3075 3076 3080 3085 3088 3092 3095 3099 3102 3106 3110 3115 3119 3123 3127 3130 3130 3134 3137 3137 3140 3142 3143 3143 3144
3131 3130 3127 3124 3121 3117 3114 3110 3106 3104 3099 3095 3091 3090 3087 3084 3079 3075 3072 3070 3071 3073 3078 3082 3087 3092 3096 3100 3103 3107 3112 3116 3120 3123 3124 3126 3128 3131 3132 3134 3136 3137 3138 3138
3130 3128 3126 3123 3122 3116 3113 3107 3102 3101 3100 3099 3093 3087 3086 3081 3074 3070 3067 3065 3066 3069 3073 3077 3082 3088 3093 3098 3100 3106 3110 3113 3117 3118 3120 3121 3124 3124 3128 3130 3131 3131 3128 3129
3130 3127 3125 3122 3119 3115 3111 3102 3099 3099 3099 3097 3094 3090 3084 3077 3069 3065 3062 3062 3062 3063 3067 3072 3077 3084 3089 3094 3097 3099 3103 3102 3107 3105 3106 3114 3119 3120 3119 3122 3123 3123 3123 3123
3126 3125 3124 3122 3118 3115 3109 3102 3100 3098 3097 3091 3095 3094 3084 3078 3072 3067 3063 3061 3060 3060 3062 3067 3074 3081 3086 3090 3094 3099 3100 3098 3095 3106 3110 3112 3113 3113 3111 3114 3113 3115 3116 3116
3126 3125 3122 3121 3117 3114 3111 3104 3102 3099 3098 3096 3094 3091 3090 3082 3076 3070 3065 3061 3059 3060 3061 3065 3072 3079 3084 3088 3092 3097 3099 3101 3102 3105 3106 3107 3106 3105 3104 3106 3106 3106 3107 3108
3127 3125 3123 3121 3120 3117 3112 3109 3109 3107 3102 3101 3096 3095 3092 3084 3079 3074 3068 3064 3062 3062 3063 3067 3072 3078 3083 3086 3090 3093 3097 3100 3101 3102 3104 3103 3102 3102 3104 3098 3098 3099 3101 3106
3127 3125 3122 3120 3119 3118 3114 3114 3111 3108 3106 3104 3101 3098 3092 3088 3083 3078 3074 3070 3068 3067 3068 3072 3075 3078 3082 3086 3090 3093 3096 3097 3099 3101 3102 3102 3101 3101 3104 3102 3102 3104 3104 3107
3128 3125 3122 3120 3119 3118 3116 3114 3112 3110 3108 3103 3097 3097 3098 3090 3086 3082 3078 3075 3073 3072 3072 3075 3077 3080 3084 3086 3090 3091 3094 3096 3098 3099 3100 3101 3101 3101 3104 3103 3105 3104 3105 3107
3126 3126 3123 3119 3118 3117 3116 3115 3113 3111 3111 3107 3098 3100 3099 3095 3090 3086 3083 3081 3079 3078 3077 3078 3079 3082 3085 3089 3090 3092 3093 3095 3097 3099 3100 3101 3101 3102 3102 3102 3103 3104 3104 3106
3124 3123 3121 3118 3116 3116 3115 3114 3113 3113 3111 3109 3107 3103 3099 3096 3093 3089 3087 3085 3083 3082 3081 3082 3083 3083 3086 3089 3091 3093 3095 3097 3098 3099 3100 3100 3101 3102 3101 3100 3102 3103 3104 3105
3121 3122 3121 3117 3118 3115 3114 3113 3112 3111 3109 3107 3105 3103 3100 3097 3095 3092 3090 3089 3087 3086 3086 3086 3087 3087 3088 3088 3089 3092 3095 3096 3099 3098 3099 3099 3100 3101 3100 3101 3101 3102 3103 3103
3119 3118 3119 3119 3117 3114 3112 3111 3110 3110 3109 3106 3104 3103 3100 3099 3097 3094 3092 3091 3090 3089 3089 3089 3089 3090 3090 3091 3091 3093 3095 3096 3099 3099 3100 3100 3101 3100 3100 3100 3101 3100 3101 3101
3116 3115 3114 3113 3111 3108 3106 3106 3106 3106 3106 3105 3103 3101 3100 3099 3098 3097 3095 3094 3093 3092 3091 3092 3092 3092 3094 3095 3095 3097 3098 3099 3099 3100 3099 3099 3099 3099 3098 3098 3098 3097 3097 3096
3114 3113 3111 3107 3106 3104 3102 3102 3102 3102 3102 3101 3100 3099 3098 3098 3098 3097 3097 3096 3095 3095 3095 3095 3096 3097 3097 3098 3099 3099 3099 3099 3100 3099 3099 3098 3098 3097 3096 3095 3094 3093 3092 3090
3111 3111 3110 3107 3104 3102 3099 3096 3098 3100 3100 3100 3099 3098 3097 3097 3096 3096 3096 3096 3097 3097 3097 3097 3097 3098 3099 3099 3099 3099 3099 3099 3099 3098 3097 3097 3096 3094 3093 3091 3089 3087 3086 3084
3107 3108 3109 3106 3102 3100 3097 3096 3096 3097 3098 3098 3097 3096 3096 3095 3095 3095 3096 3096 3097 3097 3098 3098 3098 3099 3099 3099 3098 3098 3098 3097 3096 3095 3094 3093 3092 3090 3088 3086 3083 3081 3079 3077
3103 3105 3106 3105 3102 3098 3095 3094 3094 3095 3096 3096 3095 3095 3095 3094 3095 3095 3095 3095 3096 3096 3097 3098 3098 3098 3097 3097 3096 3096 3095 3094 3093 3092 3091 3089 3087 3085 3082 3080 3078 3076 3074 3070
3099 3101 3104 3102 3102 3096 3093 3093 3091 3092 3093 3092 3092 3093 3093 3093 3094 3094 3094 3094 3094 3095 3095 3096 3096 3096 3096 3095 3095 3094 3093 3091 3090 3088 3086 3084 3081 3078 3075 3073 3071 3068 3065 3062
3095 3096 3097 3099 3099 3092 3089 3089 3090 3092 3094 3090 3090 3091 3092 3092 3092 3092 3092 3092 3092 3092 3092 3093 3093 3093 3093 3093 3092 3091 3090 3088 3087 3084 3082 3079 3076 3074 3072 3069 3067 3064 3061 3057
3091 3091 3091 3094 3094 3089 3087 3087 3089 3089 3087 3088 3089 3090 3090 3089 3089 3089 3090 3090 3091 3091 3091 3090 3090 3090 3090 3089 3089 3088 3086 3085 3083 3081 3078 3076 3073 3071 3069 3066 3063 3059 3055 3051
3085 3085 3086 3088 3085 3084 3083 3084 3085 3084 3085 3085 3085 3086 3087 3087 3087 3087 3087 3087 3087 3087 3088 3088 3088 3087 3087 3087 3086 3085 3084 3082 3080 3078 3075 3072 3070 3067 3064 3061 3058 3054 3050 3046
3076 3079 3079 3081 3079 3080 3080 3080 3080 3079 3080 3080 3080 3081 3082 3083 3083 3084 3084 3084 3084 3084 3084 3084 3085 3084 3084 3084 3083 3082 3081 3079 3076 3074 3071 3068 3065 3063 3060 3057 3054 3050 3046 3042
3071 3072 3071 3072 3072 3075 3075 3074 3074 3074 3073 3073 3073 3074 3076 3077 3078 3078 3079 3079 3079 3079 3079 3080 3080 3081 3081 3080 3079 3079 3077 3075 3073 3070 3067 3065 3063 3060 3058 3054 3050 3046 3043 3039
3059 3061 3062 3063 3066 3067 3069 3067 3066 3066 3066 3066 3066 3066 3067 3068 3071 3072 3072 3073 3074 3074 3075 3075 3075 3076 3076 3076 3075 3075 3073 3071 3069 3067 3064 3062 3059 3056 3053 3050 3047 3043 3039 3035
Wind_Speed
4 6 7 10 15 14 16 14 17 15 12 15 13 16 8 13 14 16 19 17 19 28 30 27 32 28 28 29 31 33 29 27 25 22 23 23 21 24 28 29 27 25 25 24
6 5 8 12 17 16 13 13 15 8 15 7 18 4 8 14 12 12 11 18 24 29 29 30 29 30 25 26 29 32 35 32 27 24 23 21 20 25 28 32 30 29 29 30
2 6 9 12 15 18 13 13 17 10 11 12 15 3 5 22 12 13 14 15 18 24 30 30 31 29 26 24 25 28 30 30 28 29 27 25 27 27 29 32 35 34 34 36
3 8 12 10 13 18 11 22 15 5 6 10 20 4 10 26 17 11 14 16 14 18 23 30 28 30 26 21 21 23 27 25 28 31 30 35 31 29 32 35 39 39 43 42
6 4 10 12 17 16 15 25 3 4 3 5 19 4 12 25 24 22 10 12 11 10 19 28 27 24 22 26 19 17 25 39 31 34 31 35 30 35 38 43 46 39 38 44
7 4 9 13 15 14 24 15 4 4 4 4 11 9 15 33 26 22 14 7 5 9 15 22 26 19 16 18 24 17 18 22 21 23 25 22 27 25 26 35 36 42 43 46
4 2 12 12 17 10 22 16 3 2 4 5 11 7 10 27 19 19 19 9 1 6 9 18 22 17 13 13 16 19 20 17 18 21 23 24 28 32 33 34 40 33 41 43
6 1 8 9 12 14 17 11 5 3 6 6 10 15 15 13 18 11 14 10 10 12 13 18 20 18 16 14 15 20 19 16 13 14 15 25 25 14 18 6 15 26 20 13
7 3 4 7 7 13 10 10 8 1 3 4 5 18 14 14 15 12 13 11 11 13 15 15 15 15 13 12 13 16 17 16 13 15 8 10 15 3 5 14 12 11 15 11
7 6 3 8 4 8 9 14 5 4 5 5 7 14 14 16 19 19 17 15 16 12 13 13 11 11 12 11 12 14 14 12 9 6 2 9 16 16 9 7 5 8 15 14
9 6 5 5 3 4 6 7 6 2 2 4 6 8 16 18 17 15 16 15 11 14 14 15 13 11 9 10 10 10 8 6 7 6 5 10 11 7 8 9 7 10 15 15
6 7 7 6 4 3 4 6 9 5 3 3 3 3 15 10 11 12 13 11 11 10 11 15 14 10 9 7 7 8 8 11 9 8 7 11 9 7 7 10 9 7 10 10
8 3 7 3 3 5 6 11 9 9 4 2 4 5 12 11 10 15 13 11 12 14 15 15 15 15 15 12 13 8 4 10 10 10 9 8 9 8 9 9 8 7 9 13
7 8 8 9 9 16 15 11 13 7 4 5 4 5 8 8 6 6 10 9 13 16 15 15 12 14 10 11 10 11 13 13 10 9 11 9 8 8 8 9 10 11 14 16
5 7 12 14 19 17 16 14 10 11 8 5 5 7 5 3 3 4 6 9 10 9 13 13 12 14 14 14 13 12 10 9 8 7 6 5 6 8 9 11 14 16 18 21
7 7 13 18 10 9 13 10 12 12 10 8 6 5 3 2 1 3 5 8 11 11 11 11 11 10 10 9 8 7 5 4 3 4 5 6 8 9 11 14 16 18 21 23
10 7 7 5 9 19 11 4 14 11 8 5 4 5 2 3 4 5 5 6 7 7 8 7 6 5 5 4 3 3 2 2 3 4 5 6 8 11 14 16 18 20 21 23
10 9 7 8 8 3 3 3 4 9 9 7 6 5 3 4 6 7 7 7 6 5 5 4 4 3 2 1 0 1 2 3 3 4 6 8 11 13 15 16 17 16 17 19
10 10 5 3 5 13 8 7 13 10 10 7 7 7 5 5 7 7 7 7 7 7 6 5 4 2 0 2 4 4 4 4 5 7 9 12 14 15 14 12 13 14 15 16
10 12 9 4 4 3 5 5 4 5 10 9 11 9 6 7 8 7 8 7 7 7 7 6 4 3 2 3 4 5 6 7 8 11 13 16 17 14 13 14 15 15 16 17
12 12 14 11 7 9 10 11 10 3 3 2 6 7 6 6 9 8 8 9 9 9 8 7 5 4 3 4 6 7 7 9 11 13 15 17 14 13 14 14 14 14 15 16
12 9 10 10 8 7 3 2 7 5 6 6 7 7 7 9 9 9 9 9 10 10 10 9 8 7 6 6 8 9 9 11 13 16 17 15 13 14 13 13 14 15 16 18
18 21 9 11 6 10 11 7 9 11 11 9 11 13 12 11 10 9 8 9 10 11 13 13 11 10 8 8 9 10 11 13 14 17 17 14 15 14 14 15 16 16 17 18
24 21 24 19 16 11 13 12 14 17 15 17 17 15 16 13 12 11 11 12 12 13 14 15 14 13 11 10 10 12 13 14 16 18 17 16 14 15 15 16 16 17 18 19
26 25 29 30 28 21 16 18 16 18 18 15 18 24 23 21 19 20 18 18 16 16 17 17 16 16 14 12 11 13 14 15 16 17 16 15 14 14 16 16 17 18 19 19
37 36 36 35 28 25 21 22 24 24 19 19 17 17 24 30 29 26 21 18 18 18 17 17 17 17 15 14 13 13 14 16 16 17 15 14 14 15 17 18 18 18 20 20
Wind_Direction
355 37 8 3 357 351 334 320 325 322 321 329 331 317 318 334 283 283 262 245 243 235 234 234 226 222 214 214 218 211 215 216 221 208 209 212 225 239 237 235 224 224 223 226
0 348 340 353 350 347 330 328 335 350 348 358 341 41 22 355 339 299 273 244 237 227 231 236 232 228 225 220 215 214 215 219 226 217 217 217 231 235 236 238 232 231 228 231
359 341 343 339 344 344 338 337 330 311 349 4 357 219 354 6 347 330 293 273 241 229 221 231 233 234 230 226 223 216 215 221 227 219 216 219 227 230 235 237 236 236 237 237
331 330 349 343 341 342 342 326 319 289 356 8 5 323 349 340 348 309 284 268 256 236 228 220 228 235 239 233 234 219 223 228 223 223 230 231 239 242 238 242 242 247 239 235
306 299 339 353 344 351 331 341 328 286 316 1 2 312 359 354 353 1 329 270 271 242 218 216 217 226 237 235 230 219 225 214 221 226 223 230 232 244 242 240 246 251 259 260
329 316 354 350 359 9 1 346 4 322 334 326 357 358 351 355 353 351 22 341 294 225 211 201 204 213 223 229 237 231 231 238 250 251 254 245 271 255 250 242 255 250 259 266
6 331 351 354 6 359 8 16 340 309 0 355 345 337 343 347 10 14 360 359 342 195 192 185 182 197 209 214 227 227 231 241 251 247 252 256 257 257 247 257 262 259 249 245
2 222 352 347 3 353 7 29 35 348 347 321 341 352 336 27 22 17 2 20 98 114 138 160 173 185 202 211 216 212 218 230 237 237 257 247 244 255 308 307 246 244 238 167
348 303 319 350 356 11 349 3 11 307 302 284 12 10 14 36 31 30 36 47 92 114 123 141 150 169 181 196 200 198 210 224 222 231 210 267 290 282 79 104 108 119 133 164
324 304 284 329 340 9 21 16 360 5 1 346 17 30 16 34 31 24 56 53 55 95 118 133 151 159 172 181 183 197 200 196 208 231 199 82 111 101 133 153 170 195 190 202
333 316 295 330 298 333 6 22 2 47 20 335 321 43 6 28 28 27 35 75 87 83 98 118 122 143 148 158 169 167 143 114 133 161 88 135 140 167 196 243 243 221 244 233
319 301 293 291 282 296 344 359 13 350 349 302 309 27 0 6 22 36 46 71 89 83 84 96 101 112 130 137 155 129 155 151 132 146 169 176 198 205 221 222 226 232 249 233
308 291 304 254 297 292 303 311 316 335 319 278 321 15 352 18 55 63 49 83 81 70 84 101 107 101 103 115 144 198 142 136 176 182 188 187 199 217 190 219 219 230 241 245
274 262 244 277 296 290 286 285 295 287 278 323 268 319 344 12 58 101 69 94 98 80 92 99 99 104 92 109 121 130 148 155 177 163 169 187 188 204 220 240 249 254 257 258
257 267 278 290 299 288 295 278 261 266 267 265 305 310 304 353 58 85 82 99 110 102 100 96 96 101 115 110 113 121 133 144 155 164 185 213 238 244 253 261 267 269 272 271
276 273 298 309 302 304 305 277 254 261 257 274 295 302 240 229 168 130 123 118 118 117 114 118 122 120 118 122 126 129 138 145 178 209 235 252 262 268 273 274 275 275 274 275
267 276 303 287 304 307 294 302 242 243 243 255 283 294 269 210 196 177 160 149 139 136 136 136 133 128 127 123 121 120 155 204 239 258 269 277 283 288 290 289 287 285 281 279
267 270 276 283 327 264 305 318 234 226 239 247 260 286 265 204 190 185 176 173 171 167 165 165 159 153 143 108 60 344 314 304 298 299 301 302 301 298 295 293 290 287 286 287
244 244 248 265 286 291 297 283 249 260 258 244 243 248 242 209 192 192 188 183 182 182 186 186 186 188 189 349 339 329 319 311 312 313 313 314 312 310 305 299 296 298 298 299
224 223 210 248 257 248 256 305 312 278 285 251 235 222 218 216 218 232 214 208 205 199 199 202 204 221 281 316 327 324 316 317 320 322 324 323 323 322 320 318 318 322 321 316
207 215 219 235 252 267 277 264 271 219 261 237 200 214 219 224 229 241 236 233 230 226 224 225 230 246 276 309 325 325 320 319 321 325 328 327 326 323 321 323 324 321 319 322
234 212 210 205 225 262 123 239 227 268 275 254 240 243 245 242 239 242 248 251 249 243 239 238 244 259 282 304 319 323 321 321 325 327 329 327 324 320 319 321 325 330 333 335
232 229 226 213 239 265 292 285 275 275 272 264 253 255 254 249 241 241 251 261 259 252 248 247 247 253 268 289 305 312 314 318 325 327 326 325 324 324 326 329 330 333 335 335
241 246 240 254 273 276 270 289 288 282 269 261 257 255 248 241 243 246 261 273 270 264 255 249 249 253 261 276 293 304 310 318 323 327 325 323 325 325 326 326 328 332 335 334
248 252 254 266 266 269 285 280 275 282 284 279 270 256 245 243 251 264 269 266 263 259 256 251 249 251 258 268 284 298 306 314 320 324 321 319 320 321 321 324 328 333 334 333
254 260 260 267 281 274 277 276 272 271 277 278 276 274 260 250 253 250 253 253 256 256 255 252 250 251 257 265 277 292 301 309 317 318 315 315 318 321 322 326 328 330 334 336